Theta_e
341 339 338 337 336 329 324 321 304 313 309 299 299 301 298 306 305 303 303 308 305 312 315 317 316 316 313 312 312 317 319 313 314 306 308 326 336 339 340 343 344 344 343 343 344 346 346 348 350 350 349 348 348 349 348 348 347 348 348 348 347 347 345 344 343 342 341 339 338 338 338 338 338 338 336 336 337 337 338 336 336 337 339 339 339 339 338 338 337 337 337 337 336 336 336 335 337
339 338 337 338 331 330 317 320 310 304 303 298 299 303 301 302 303 300 303 306 311 312 313 315 315 316 317 317 313 316 321 322 323 322 325 334 335 336 340 342 343 343 343 343 343 344 344 345 348 350 349 348 348 348 348 348 347 348 348 348 347 346 345 344 343 342 341 340 339 339 339 338 338 337 338 338 337 337 337 336 335 339 340 339 338 338 337 336 335 335 334 335 336 335 335 335 336
337 338 337 335 326 322 318 318 302 301 299 296 300 301 305 302 302 305 309 312 314 315 315 316 317 316 314 315 312 315 312 326 325 325 324 334 330 333 339 343 343 343 343 342 340 340 344 345 347 348 350 349 348 348 348 348 348 348 348 347 347 346 345 344 343 341 340 340 338 338 337 337 337 337 337 338 337 336 336 335 336 337 336 337 336 337 336 336 335 335 336 336 336 336 336 336 336
339 340 335 329 318 325 314 312 305 300 297 299 298 304 304 304 304 309 310 313 312 314 316 313 312 319 315 310 315 320 319 320 328 328 326 330 331 335 339 342 343 343 341 341 340 340 342 345 346 348 348 349 348 348 348 348 347 348 347 347 346 346 345 344 342 341 340 340 339 337 338 337 337 336 337 335 336 336 335 336 335 335 336 336 337 336 336 335 335 335 336 336 336 336 336 336 336
339 337 335 325 320 312 315 308 304 303 297 301 299 304 305 307 308 311 312 312 310 312 312 314 314 319 319 315 319 314 315 324 328 330 330 333 337 337 340 342 343 342 340 338 339 339 341 344 345 346 348 346 346 347 348 347 348 348 347 347 346 345 345 344 343 341 339 339 338 339 338 336 336 336 336 335 336 337 336 335 335 335 335 335 335 336 335 335 335 336 336 336 336 336 336 336 336
336 332 329 327 315 321 315 306 303 302 305 307 303 303 306 307 310 312 312 313 314 313 314 313 312 314 312 316 325 320 325 317 326 330 333 331 336 339 341 342 341 342 342 338 338 340 342 343 344 346 347 346 347 347 347 346 345 345 346 346 345 344 344 343 342 341 339 337 338 338 338 336 336 337 336 337 336 335 334 334 334 335 334 335 335 335 334 335 335 335 336 336 335 335 335 336 336
332 325 323 325 320 321 305 302 301 302 305 308 305 305 306 307 312 312 311 312 314 316 313 313 316 311 309 318 324 326 330 330 329 332 336 334 337 339 341 340 341 341 342 338 337 341 342 343 345 347 347 347 347 346 346 346 345 345 345 344 343 344 344 343 341 340 339 337 338 338 337 336 337 337 336 336 336 334 334 334 335 335 334 334 335 334 334 334 334 335 335 336 335 335 335 334 335
334 320 319 314 311 310 303 302 303 305 305 309 309 306 307 309 310 312 311 310 309 309 312 314 312 309 314 320 316 325 330 333 333 337 336 336 338 339 340 340 339 340 341 340 340 340 344 342 344 346 347 347 347 346 346 345 345 345 345 345 343 343 344 342 341 341 339 338 339 338 336 336 337 337 335 335 334 333 335 335 334 335 334 334 334 334 335 334 334 334 334 335 335 335 334 334 334
330 320 327 316 304 310 305 303 303 309 310 310 309 312 314 310 311 310 309 312 311 313 310 311 311 305 311 312 319 324 327 333 336 337 336 336 337 339 340 340 338 339 341 342 342 339 341 342 343 345 346 347 347 346 345 345 345 344 345 344 342 342 344 342 341 340 340 339 339 338 335 336 336 336 336 334 335 334 334 334 335 333 333 333 333 333 334 334 333 334 334 334 334 334 334 334 333
326 320 312 312 311 301 303 304 303 307 309 310 309 310 310 309 309 310 310 310 310 311 312 314 312 308 309 312 319 323 325 332 334 334 336 337 339 339 339 340 340 340 341 344 342 339 341 344 342 343 344 345 346 347 346 345 344 344 344 343 342 343 344 342 341 340 340 339 339 339 336 336 336 336 335 334 335 335 334 335 334 334 334 334 333 333 333 333 334 334 334 334 334 333 333 333 333
318 322 323 309 303 301 301 302 305 308 310 310 310 312 311 309 309 308 312 311 312 310 311 312 311 308 309 319 322 329 331 333 333 332 335 337 339 339 338 339 340 341 341 345 342 339 342 343 344 341 343 343 345 345 346 345 343 343 343 343 341 341 342 342 342 341 340 340 339 339 338 338 338 337 336 335 339 336 333 334 333 334 333 334 333 333 334 334 333 333 333 334 333 333 332 332 332
315 314 313 303 301 301 302 303 306 308 311 310 308 313 311 310 310 308 310 309 309 311 311 310 309 311 307 313 319 326 331 332 334 335 336 337 337 340 340 340 341 341 343 345 345 344 342 344 343 344 340 341 342 343 343 344 344 343 342 342 342 341 341 342 343 342 341 340 340 340 339 339 338 337 338 339 338 337 332 334 333 334 333 334 334 333 333 333 333 333 333 334 333 333 332 333 332
317 317 311 305 302 302 303 302 304 307 310 309 308 310 311 310 308 309 311 313 310 308 310 310 313 309 305 311 323 327 330 332 334 336 336 336 337 338 339 340 341 341 343 343 344 344 343 343 343 343 340 338 338 340 340 341 343 343 343 343 343 343 343 344 344 343 342 343 341 341 341 339 340 340 341 340 338 338 335 337 338 334 334 334 334 333 333 333 333 332 332 333 333 333 332 332 332
317 317 313 305 308 304 303 303 305 304 306 310 309 310 311 309 310 312 311 309 309 308 314 314 313 312 313 320 321 323 329 333 335 336 336 336 337 338 338 340 341 341 343 343 342 344 343 343 343 343 341 340 341 338 337 339 341 343 342 343 343 343 345 345 344 344 343 343 341 340 341 341 340 342 341 339 338 338 336 335 336 335 333 334 334 334 334 333 333 332 333 333 333 332 332 331 332
317 320 313 308 306 305 305 302 304 305 305 307 308 309 309 313 312 314 312 309 310 315 317 316 321 313 304 307 317 324 329 333 335 336 336 337 338 338 339 339 340 340 341 342 342 343 342 343 343 343 342 342 342 341 339 338 337 339 340 341 342 341 343 343 342 342 342 341 340 339 340 340 339 339 338 337 337 337 335 334 334 336 333 333 334 334 333 333 333 333 333 333 332 332 332 332 332
324 318 314 306 303 304 305 304 307 305 305 307 309 311 310 313 315 312 311 311 310 314 313 309 318 311 319 324 324 329 333 335 336 336 335 335 336 338 339 338 337 339 340 341 340 342 342 342 342 343 343 342 342 341 340 339 335 336 337 339 340 340 341 340 339 338 338 337 337 336 335 335 335 334 334 333 333 334 335 331 332 335 336 334 333 334 334 334 334 333 333 332 332 332 332 332 332
325 321 307 306 302 304 305 305 306 302 307 307 309 309 308 309 314 313 314 315 310 309 310 315 312 317 323 327 330 332 334 335 334 335 334 333 334 334 335 335 335 338 340 340 339 340 342 342 341 342 342 342 342 342 341 340 338 334 334 334 336 337 338 337 336 333 332 330 330 330 332 334 333 333 332 332 330 331 327 326 330 334 337 337 336 334 334 336 334 333 333 333 333 333 334 334 334
320 310 306 303 306 304 308 306 309 310 307 307 308 309 309 307 310 311 314 311 311 309 309 314 318 322 326 331 333 333 333 333 334 332 330 330 332 331 332 334 333 334 336 336 338 340 341 341 341 342 342 342 342 343 343 342 339 335 337 336 336 336 334 332 334 338 338 336 328 331 333 333 332 331 332 335 330 330 327 324 327 331 333 335 336 336 335 336 335 333 333 333 333 334 332 328 329
314 310 307 303 307 309 313 311 312 309 308 310 310 310 309 310 310 310 308 307 307 308 308 312 313 321 323 328 331 332 332 332 332 331 329 328 329 330 330 331 332 334 335 335 336 338 339 340 342 342 342 342 342 342 343 342 339 337 338 337 337 334 338 338 339 339 339 339 335 335 332 332 332 332 332 332 332 327 330 324 327 329 331 331 334 335 336 334 334 336 334 335 335 333 329 328 327
316 309 303 306 311 312 314 314 313 313 313 311 310 310 310 311 311 312 308 307 307 306 306 307 309 318 320 325 329 330 331 330 331 330 329 328 329 330 329 330 331 332 334 335 335 339 339 338 339 341 342 342 342 341 342 342 338 338 338 338 336 337 337 338 338 338 339 339 338 336 334 334 334 334 337 336 336 332 329 324 325 326 328 328 329 331 332 333 334 334 334 334 333 330 329 328 327
314 309 304 307 312 310 313 316 315 314 314 312 311 310 309 310 311 309 308 305 306 307 310 309 309 314 319 322 327 328 329 329 329 329 329 329 329 330 330 331 331 332 334 336 336 336 337 338 338 339 341 342 341 341 341 340 340 338 338 338 337 336 335 336 336 336 336 335 338 338 337 336 336 336 334 333 332 332 330 327 326 326 326 325 325 324 326 327 328 326 327 327 325 326 325 326 325
313 309 310 310 311 309 314 316 316 315 315 312 311 308 309 313 311 309 308 304 303 308 312 312 312 313 320 321 326 327 328 328 329 329 328 329 329 329 330 330 332 332 333 333 334 335 337 338 338 338 340 340 340 340 340 339 340 338 337 336 336 335 334 333 333 333 333 335 335 336 335 335 334 334 333 332 332 331 329 329 328 327 327 327 326 325 325 324 326 325 326 326 325 324 324 324 325
305 310 311 312 312 309 313 316 317 314 314 313 310 311 313 311 309 310 310 308 309 312 313 314 315 316 323 324 326 325 327 327 328 329 329 329 329 330 330 331 331 330 331 331 334 335 336 337 337 338 338 339 339 340 340 339 338 338 338 337 336 335 334 333 333 333 333 334 334 334 332 331 331 331 332 332 331 332 330 328 329 329 328 327 327 326 325 325 324 325 325 325 324 324 324 324 325
309 305 309 311 313 310 312 315 315 316 315 313 313 314 311 310 306 311 309 312 313 312 313 315 320 325 325 324 325 324 327 327 328 330 331 330 331 331 331 331 332 332 331 331 332 333 333 336 337 338 337 338 338 339 338 338 337 337 337 336 337 335 333 333 332 333 334 333 333 332 331 331 329 329 330 330 331 332 330 329 327 327 328 327 326 327 326 324 324 324 324 323 324 324 324 324 324
307 306 309 309 311 312 313 316 313 314 314 314 314 311 311 311 310 311 309 312 313 313 312 313 316 319 324 325 324 324 325 327 328 329 331 331 332 333 333 332 332 332 331 331 332 333 333 335 337 337 337 338 339 338 336 337 337 336 336 335 335 334 334 334 332 332 332 331 332 331 330 331 329 329 329 329 329 330 330 329 327 326 325 324 325 324 324 323 322 323 323 323 323 323 322 323 323
310 309 310 309 309 311 313 312 313 314 314 314 311 310 312 313 314 310 311 313 314 313 312 311 312 313 317 322 323 322 324 326 327 328 329 330 332 332 331 331 332 332 332 332 332 332 334 334 334 336 336 337 338 338 336 336 336 336 336 335 336 335 334 334 333 331 331 330 328 331 331 330 328 327 328 329 329 327 327 328 327 326 324 324 323 324 323 323 322 322 322 323 322 321 321 321 320
312 311 310 308 309 310 310 309 310 312 313 315 310 309 310 313 311 305 313 315 314 313 312 313 312 312 313 316 320 321 322 325 326 328 328 329 330 330 331 331 331 331 332 332 332 333 333 334 333 334 336 334 336 336 336 336 336 336 336 336 336 335 335 334 333 332 331 329 329 330 331 330 329 327 327 328 327 327 327 327 327 327 326 325 324 324 325 324 323 322 322 322 321 320 320 319 319
310 311 310 309 310 311 309 308 310 311 310 313 312 309 311 312 311 308 312 315 315 313 312 313 314 313 313 314 316 319 320 324 326 327 327 328 328 329 330 331 331 331 332 332 333 334 334 334 333 334 334 334 334 335 335 336 335 335 335 336 336 336 336 334 333 333 329 330 330 330 330 330 329 328 326 327 327 327 326 326 325 326 325 326 326 324 324 324 323 323 323 323 321 321 320 320 321
308 310 305 307 309 308 310 306 307 311 308 311 313 308 306 308 307 312 314 315 315 314 314 313 313 314 314 314 314 317 318 321 325 326 328 329 330 331 330 332 332 332 333 334 334 334 334 334 334 334 334 333 334 335 335 335 334 335 335 335 335 335 335 334 334 333 332 331 331 331 330 330 329 328 327 327 326 325 326 326 326 326 327 327 327 325 325 324 323 322 323 323 321 320 320 319 320
309 308 306 304 304 304 309 309 308 308 309 310 310 296 301 305 309 313 315 314 314 314 313 313 313 314 315 314 314 316 318 319 323 326 327 329 330 331 331 333 333 333 332 333 335 334 335 336 335 335 334 333 333 333 333 333 333 333 334 335 333 333 333 333 332 333 332 331 330 330 331 330 328 329 328 326 326 325 326 326 326 326 327 327 328 327 325 323 322 321 321 321 319 320 319 319 318
301 305 306 300 299 298 308 308 308 304 310 309 310 297 299 304 308 313 314 315 313 312 312 313 314 314 314 314 313 316 318 318 321 325 327 329 330 330 331 332 333 334 332 332 333 334 335 335 336 335 333 333 332 332 331 331 332 332 331 332 332 332 333 333 333 333 332 331 330 329 331 330 329 329 328 327 326 325 324 324 325 326 327 327 327 325 324 324 323 322 320 320 320 318 318 318 319
303 298 294 299 297 299 305 309 308 303 308 310 306 297 299 301 304 312 314 314 314 312 312 313 313 314 314 314 314 314 317 319 319 324 327 327 329 329 330 330 333 333 333 333 334 335 334 335 334 334 333 333 332 332 332 332 332 332 332 330 331 332 331 332 332 332 332 331 330 328 329 330 329 330 329 329 326 326 325 324 325 325 326 326 325 325 325 323 322 322 321 321 319 318 319 319 318
300 297 294 294 297 298 300 306 309 309 308 308 305 297 300 301 305 306 313 313 313 312 312 313 314 314 314 314 314 314 314 318 319 320 325 326 327 327 329 330 331 333 333 333 333 334 334 334 333 333 333 333 333 332 332 331 331 331 332 331 332 331 331 331 332 332 331 331 330 328 329 329 329 330 330 330 328 327 326 325 325 325 326 325 324 324 324 324 324 323 321 320 320 318 318 318 318
294 298 293 296 295 296 295 302 306 308 308 303 306 301 301 301 303 306 307 313 312 311 311 312 313 314 314 313 313 314 315 315 318 319 320 324 325 326 328 329 330 333 332 333 334 334 334 334 333 333 333 334 334 333 332 331 331 331 331 330 329 330 330 331 331 331 330 330 330 329 329 329 328 329 330 329 329 328 326 325 325 325 326 325 324 323 323 324 324 323 320 320 320 319 318 318 318
290 293 292 293 295 297 296 295 301 305 307 304 304 303 303 304 306 305 306 307 310 310 311 311 311 313 313 314 314 314 314 314 315 320 322 321 324 326 327 328 328 331 333 333 334 334 334 333 333 332 333 333 334 333 332 331 331 330 330 329 329 329 329 330 329 329 329 329 330 330 329 329 328 329 330 329 329 328 327 326 325 325 325 325 324 323 322 321 321 322 321 320 321 321 320 318 318
293 295 294 294 292 293 294 299 302 303 302 303 303 300 302 304 305 307 307 305 305 308 311 311 311 311 312 312 313 313 313 314 317 318 322 323 324 327 326 327 328 329 330 332 331 333 333 332 333 333 332 333 333 333 332 331 329 328 327 327 327 327 328 328 329 329 328 329 330 330 330 330 329 328 329 329 329 328 327 326 326 326 325 324 323 322 322 321 321 321 321 320 320 320 319 319 319
296 296 295 294 293 294 298 299 302 306 302 301 302 303 302 304 305 307 308 308 305 305 308 309 310 310 310 309 311 312 312 314 317 318 319 321 323 326 327 326 326 328 328 329 329 330 332 332 331 332 333 333 332 331 331 330 328 327 327 326 326 327 327 327 328 328 328 328 329 330 330 330 329 328 328 328 328 326 328 329 327 326 326 325 324 323 323 322 322 322 321 320 319 319 319 320 320
294 293 293 293 295 292 296 298 303 307 303 300 303 302 302 303 305 307 309 308 306 305 306 308 308 308 307 306 307 309 312 314 317 318 319 320 321 325 326 325 324 326 326 327 327 328 330 331 331 332 333 332 333 332 332 331 330 329 327 327 326 326 326 325 326 327 328 328 328 329 329 330 329 328 327 328 327 328 327 327 327 327 326 326 325 324 323 321 321 321 321 320 320 319 318 318 319
294 292 291 291 292 295 297 298 301 305 303 299 301 300 301 303 305 306 306 307 308 308 306 307 307 307 307 306 306 307 308 310 315 315 316 318 320 321 321 321 324 326 327 326 327 328 328 329 330 331 332 332 332 332 332 331 331 330 329 327 327 326 328 328 328 327 328 328 328 329 329 330 330 329 328 327 328 327 327 327 326 326 326 326 325 324 324 322 322 321 321 320 318 319 319 320 319
294 292 290 288 293 292 289 296 298 303 301 298 300 298 299 303 305 305 307 307 308 310 309 308 309 308 307 307 307 307 307 309 312 312 313 316 317 318 317 318 319 320 321 324 326 327 328 328 328 329 330 332 331 332 330 332 331 331 330 329 329 328 326 327 328 328 328 327 327 329 329 329 330 329 329 327 327 327 327 327 326 326 326 326 326 324 324 323 322 322 322 321 320 317 317 318 320
294 294 292 291 292 293 293 292 297 299 302 302 298 295 296 299 299 300 305 308 308 309 310 310 310 310 311 311 310 310 309 309 311 312 312 314 316 316 317 318 318 318 318 318 321 325 327 327 328 329 329 330 331 330 330 331 330 329 329 328 327 327 326 326 326 326 327 327 327 327 328 329 329 329 329 329 327 327 327 327 326 326 326 326 326 325 324 324 324 323 323 321 321 319 317 317 318
291 294 295 294 294 293 294 295 293 291 291 299 297 288 288 295 297 298 301 302 304 307 307 308 309 310 310 310 310 311 311 311 311 311 312 313 314 313 316 318 318 318 318 318 319 321 324 325 327 328 329 329 330 330 330 330 329 329 328 326 325 325 324 324 324 325 325 326 326 328 328 328 329 329 329 329 328 326 327 327 327 326 326 326 326 326 325 325 324 323 323 323 322 322 320 318 317
288 290 296 296 295 294 292 292 291 285 284 293 298 287 283 291 293 296 298 299 300 303 305 307 308 309 310 310 311 311 311 311 311 311 312 313 313 313 312 316 318 319 319 320 320 319 321 323 326 328 328 328 329 329 330 328 329 329 329 328 327 326 325 326 328 328 328 328 328 327 328 328 328 328 328 329 329 327 327 327 327 326 326 326 325 325 325 325 325 325 324 323 323 322 321 319 318
286 294 295 296 294 293 293 292 291 288 294 295 295 293 286 285 290 295 297 297 298 300 302 304 306 307 308 310 311 311 312 312 312 312 313 314 314 314 314 314 315 319 321 321 321 321 320 320 323 327 327 326 328 329 329 329 328 328 328 328 327 327 326 326 327 328 329 328 328 328 328 328 328 328 328 328 329 328 327 327 327 326 326 326 325 325 325 326 326 326 324 324 324 323 322 320 319
289 294 296 294 294 293 293 292 290 290 288 284 289 294 286 285 291 295 294 293 295 296 298 301 304 306 307 309 311 311 312 313 313 313 314 314 315 315 315 315 316 317 318 320 321 321 321 320 320 323 326 325 326 327 328 328 327 327 328 328 327 327 328 327 326 326 327 327 327 328 328 329 329 329 329 328 328 328 326 327 327 326 326 326 324 325 325 326 325 325 324 323 323 323 322 322 320
292 297 299 298 296 294 293 290 288 288 285 282 287 291 284 285 290 292 294 292 291 293 296 298 301 304 305 307 310 311 312 312 313 314 314 315 315 316 316 316 316 317 318 319 320 322 322 321 320 321 323 325 325 327 327 328 327 326 326 327 327 326 326 326 325 324 325 326 326 327 328 328 328 328 328 328 328 328 327 326 326 326 326 326 323 325 325 325 325 325 325 324 324 323 323 322 321
297 297 294 292 292 290 292 290 287 284 281 283 289 290 288 281 287 290 290 291 294 294 295 298 300 302 304 307 308 309 310 310 311 311 312 312 314 315 315 315 315 315 315 317 318 321 322 321 320 319 321 323 324 326 326 327 327 326 325 325 326 325 325 325 324 323 324 324 325 326 327 328 328 328 329 328 328 328 328 327 326 326 326 325 323 324 324 325 325 325 325 325 323 323 323 323 320
294 291 289 289 287 288 286 284 283 280 278 285 289 289 289 280 284 290 294 296 296 296 295 296 297 299 301 305 308 309 309 309 309 310 310 310 310 311 312 313 314 314 315 316 316 319 322 321 319 318 318 319 321 323 326 326 327 326 325 324 324 325 324 324 323 323 324 324 324 324 325 326 326 327 328 328 328 329 328 328 326 326 325 326 325 325 325 325 325 325 325 325 324 324 324 322 322
293 290 289 282 278 281 277 280 276 277 278 285 289 290 285 284 288 290 293 295 296 296 297 298 298 298 301 304 306 307 308 307 308 310 310 311 311 311 310 311 312 313 314 315 317 319 319 319 318 317 316 317 318 319 322 324 325 325 325 323 323 324 324 324 324 323 323 323 323 322 322 323 324 324 325 327 328 328 328 327 327 326 326 325 326 326 325 325 325 325 325 325 325 324 324 323 322
289 287 285 281 276 275 272 276 277 279 283 287 285 289 284 288 291 295 294 295 295 295 296 297 298 298 299 302 302 305 306 307 308 309 310 310 311 311 311 311 312 313 313 315 315 318 318 318 317 316 316 317 316 317 318 320 323 324 325 324 323 322 323 324 324 323 323 323 323 323 323 322 322 323 324 325 327 328 328 328 328 328 327 327 326 326 326 325 325 325 324 324 324 324 324 324 323
289 291 288 283 281 275 271 274 272 273 277 282 287 281 276 282 284 294 295 297 298 298 298 297 300 300 299 300 301 303 305 305 307 307 308 309 310 311 311 312 312 312 313 313 313 314 317 317 317 315 315 315 316 316 317 318 321 322 323 324 324 323 322 322 323 324 323 322 322 322 322 322 322 323 323 324 325 326 327 328 328 327 327 327 326 326 326 325 325 325 324 324 324 324 324 323 323
291 292 291 286 282 284 277 278 276 276 276 276 279 279 283 286 292 293 295 294 296 298 297 297 297 298 300 300 301 302 304 305 305 305 306 307 308 310 311 312 312 312 312 312 313 314 315 316 316 316 315 315 316 315 316 318 319 321 322 322 323 323 322 322 321 322 322 321 321 321 321 321 322 321 322 323 324 325 326 327 327 327 327 327 327 326 326 325 325 325 324 324 323 324 323 323 323
288 289 283 286 293 288 281 282 281 281 278 275 281 283 286 290 292 293 293 292 294 295 295 296 297 297 298 300 301 301 303 302 303 305 307 308 309 310 311 311 312 313 313 313 314 314 315 315 314 314 314 314 314 315 316 317 317 318 319 320 321 321 321 320 319 319 319 320 320 320 320 320 320 321 321 320 321 321 325 326 326 326 326 327 326 326 326 325 325 324 324 323 323 323 322 322 323
290 283 287 294 295 290 284 277 279 278 274 275 282 278 281 282 278 291 291 291 292 293 294 295 296 297 298 299 299 301 302 303 304 306 308 309 309 310 311 311 312 313 313 313 313 314 314 314 313 313 313 313 313 314 315 316 316 316 315 317 317 318 318 318 317 317 317 317 316 318 317 318 318 320 321 322 321 321 321 319 324 325 325 325 325 326 325 325 325 324 324 323 324 323 322 322 322
291 288 297 286 280 279 283 282 275 274 274 275 279 280 281 283 283 287 287 289 290 292 294 295 295 296 297 298 298 300 302 303 304 305 306 307 306 307 309 311 312 312 312 313 312 313 312 312 313 314 313 313 313 314 313 315 315 315 315 314 314 314 314 314 315 316 315 315 315 315 315 316 316 316 318 318 319 319 320 320 321 322 323 324 324 324 325 325 324 324 323 323 323 323 322 322 322
289 294 289 290 288 283 281 281 282 282 275 275 275 279 277 285 285 289 289 291 291 292 292 294 296 297 298 299 299 300 302 303 304 304 304 305 305 305 307 311 310 310 310 310 310 310 310 311 312 311 311 311 311 312 312 312 312 314 314 312 312 312 312 313 313 312 313 313 313 313 313 313 315 316 316 316 317 318 318 319 320 321 322 322 323 323 323 323 324 324 323 323 323 322 322 321 322
285 284 285 287 284 288 287 286 283 279 276 277 276 276 279 286 290 290 290 292 293 293 293 294 296 297 299 299 300 301 302 303 303 304 304 304 304 304 305 307 308 308 307 307 308 308 309 309 310 309 309 309 310 310 310 311 312 312 311 311 311 311 311 311 311 311 311 311 312 311 312 313 312 313 313 315 315 317 317 318 319 320 321 321 321 322 322 323 322 322 323 323 322 322 321 322 321
288 287 284 287 285 282 278 276 286 284 280 276 277 274 283 288 293 293 292 294 294 295 294 295 296 298 299 299 300 301 302 302 303 304 304 304 303 304 305 305 305 305 306 306 307 307 307 307 309 308 308 308 308 309 310 311 311 312 311 311 311 310 311 310 310 310 310 310 310 311 310 310 310 312 312 313 314 315 316 317 317 318 319 320 320 321 321 321 321 321 321 322 322 321 321 321 321
Wind_Speed
13 12 10 10 8 3 4 3 2 2 2 8 6 4 2 2 1 2 3 5 4 3 5 1 4 1 4 3 2 10 11 6 3 1 1 2 5 9 8 17 15 14 13 11 10 9 9 10 13 14 14 14 15 15 14 14 14 13 14 13 13 13 12 12 11 11 10 10 10 10 9 10 11 11 11 10 10 10 11 10 8 11 12 12 12 11 11 11 10 9 10 9 10 10 10 11 11
10 11 11 9 6 1 3 5 2 3 3 6 7 5 4 4 2 3 6 2 5 5 2 4 2 0 5 4 3 4 12 9 7 6 4 5 5 4 9 15 16 14 12 11 11 10 8 8 10 14 14 15 16 16 14 14 13 14 14 14 13 13 13 13 12 11 11 11 10 9 10 10 10 10 11 11 10 10 10 9 8 12 13 11 10 10 11 11 9 9 9 9 10 10 9 10 10
10 10 9 7 6 4 4 2 3 3 6 8 2 5 5 4 5 1 10 9 6 4 2 5 3 1 1 3 3 2 4 10 12 8 5 6 7 6 8 15 13 13 13 10 10 10 8 8 9 11 16 14 15 15 15 14 14 13 14 14 14 13 13 12 11 9 9 9 9 8 10 11 9 10 11 10 9 9 9 9 8 9 9 11 11 11 10 10 9 10 10 9 10 10 10 10 10
9 8 7 5 3 2 2 2 4 5 5 9 3 3 3 5 5 9 7 6 5 3 1 3 3 1 1 3 3 8 6 5 8 10 6 7 4 7 9 14 13 11 10 9 9 9 9 10 10 10 12 16 16 15 14 14 13 14 13 13 13 12 12 12 11 10 9 9 10 9 10 10 9 10 10 9 9 9 8 8 8 6 8 10 11 10 10 9 9 9 9 9 9 9 10 10 9
8 7 7 5 3 2 2 3 5 4 9 3 2 3 4 2 11 9 6 5 3 2 2 2 1 1 1 3 2 1 3 7 8 7 7 6 9 6 11 13 11 12 11 10 10 9 10 15 12 11 12 14 15 15 14 14 13 13 13 12 12 11 11 11 11 10 9 8 9 10 10 9 8 10 9 9 10 10 8 8 7 7 6 9 10 10 10 9 9 9 8 8 9 9 9 9 9
8 6 5 3 2 2 1 2 4 7 7 5 1 2 3 5 11 10 6 5 4 3 3 2 1 5 3 1 4 4 3 1 6 6 7 7 12 9 14 11 10 11 11 10 10 8 10 15 13 13 13 15 15 14 14 13 13 13 12 12 11 11 10 10 10 10 9 7 8 10 10 9 9 10 10 9 9 7 7 8 8 7 6 7 9 10 8 9 8 8 8 7 7 8 8 8 8
4 6 3 2 4 2 3 5 7 7 7 7 3 2 3 5 10 8 7 6 3 2 1 2 3 2 2 3 7 4 6 7 5 7 7 9 9 11 14 11 11 11 11 10 9 9 13 15 15 14 13 15 16 15 14 14 14 12 12 11 11 11 11 10 10 10 9 8 9 10 10 9 10 9 9 9 8 8 7 6 7 7 5 5 7 8 8 8 8 8 7 7 7 7 6 6 6
1 0 3 2 3 3 4 5 8 7 3 6 4 5 3 6 5 6 7 4 5 4 3 1 3 3 4 6 5 4 7 7 9 11 12 9 8 13 10 9 10 11 10 10 10 10 14 16 15 14 14 15 15 15 14 13 13 12 10 10 11 12 11 11 10 10 9 9 10 10 8 9 9 9 7 9 7 6 7 7 8 7 6 5 5 6 8 8 8 7 7 6 6 6 5 5 4
2 1 2 2 3 3 4 6 8 9 0 1 4 7 6 3 2 4 7 3 6 3 6 3 3 2 1 3 7 5 5 7 10 12 11 10 10 11 9 10 9 9 10 9 10 11 11 14 14 14 13 13 13 13 13 13 12 12 11 9 10 11 12 11 10 10 10 10 10 10 8 7 8 9 8 7 9 7 7 6 6 6 6 6 5 6 7 7 7 7 6 5 5 5 4 3 4
4 4 2 2 2 6 5 6 8 6 6 5 7 7 4 4 2 3 6 5 4 3 5 4 3 3 1 7 8 4 4 7 11 10 10 10 11 8 6 11 8 8 8 10 9 11 9 13 14 13 12 12 12 11 12 12 12 12 12 10 10 13 11 11 10 10 9 9 8 10 9 8 8 8 7 5 9 7 8 7 8 7 6 6 5 4 6 6 6 7 6 5 4 4 3 2 2
4 3 2 2 3 5 6 5 7 6 5 6 2 6 4 4 4 3 2 5 6 3 5 5 2 2 3 7 4 3 8 10 11 12 10 10 11 7 6 7 8 7 10 11 10 9 9 9 13 13 12 12 11 11 10 11 11 11 12 11 11 12 11 11 11 10 10 9 7 10 9 10 10 10 8 8 5 5 6 7 5 6 6 6 5 5 5 4 5 6 6 5 5 4 3 2 1
4 4 4 4 5 5 5 5 5 5 3 6 3 6 2 4 3 3 3 4 4 4 6 6 1 3 2 4 3 5 9 9 10 11 10 9 9 10 8 7 6 6 9 11 10 9 9 8 8 10 12 11 11 11 10 10 10 11 11 11 11 11 12 11 10 10 10 9 8 7 10 9 10 10 10 10 8 7 5 7 5 6 6 6 7 6 5 4 4 5 6 6 5 4 4 4 2
5 5 5 5 4 5 8 10 9 7 2 4 5 4 4 4 4 4 4 1 6 4 5 6 3 0 3 4 4 7 9 10 10 10 11 9 8 7 7 8 7 7 7 10 9 10 10 8 7 7 8 10 10 10 9 9 9 9 9 10 9 10 11 12 12 11 10 9 9 7 6 6 2 10 9 11 11 8 8 7 5 6 7 7 6 6 5 5 5 5 5 6 5 5 4 4 4
5 3 4 7 4 5 7 8 10 7 2 2 5 4 5 3 4 5 4 4 5 3 2 7 0 1 4 7 6 6 8 10 12 11 9 8 7 5 5 8 6 6 6 7 8 10 10 10 8 7 7 7 6 7 8 9 9 9 9 9 8 8 8 9 11 10 9 8 9 8 7 7 6 7 10 11 11 9 8 8 7 8 6 6 5 6 6 6 7 6 5 5 5 5 5 5 5
6 3 4 5 6 7 6 7 9 6 2 7 3 7 5 2 5 1 4 6 6 5 1 4 1 1 0 2 7 8 10 11 12 10 8 7 7 6 4 6 5 6 7 6 7 10 10 10 9 8 7 6 7 6 5 7 10 10 9 8 8 8 8 8 9 8 9 7 9 8 8 7 7 7 8 10 9 8 9 9 9 9 9 7 8 7 7 7 6 6 6 5 6 6 5 5 5
3 3 2 4 8 8 5 9 10 8 1 4 5 4 7 2 2 4 2 3 2 3 4 1 1 1 5 10 8 12 14 12 11 10 9 9 7 5 5 4 5 5 5 7 5 8 8 9 9 8 9 7 6 6 7 6 9 10 9 7 8 9 9 9 8 9 8 7 9 9 8 6 7 5 8 6 8 9 9 7 9 8 9 9 7 8 7 8 7 7 7 7 7 7 6 6 6
2 1 5 5 9 9 6 6 6 8 4 4 4 6 4 3 1 2 1 1 5 3 1 3 2 3 6 5 12 13 12 11 10 10 10 7 6 6 5 5 4 4 4 5 4 6 8 8 8 8 9 9 9 7 7 7 8 11 8 8 8 8 8 8 8 9 9 7 8 9 8 5 4 4 6 4 7 5 8 8 10 8 7 7 7 8 8 7 7 8 8 8 8 7 6 3 5
3 5 6 9 7 10 6 8 5 4 3 4 6 7 6 6 4 2 1 2 2 5 3 4 6 9 10 9 11 11 11 11 10 11 10 9 6 6 7 6 5 7 6 5 5 5 7 6 8 8 8 10 9 7 6 7 7 9 9 6 5 6 5 6 6 5 6 4 8 6 5 5 5 5 6 6 6 6 6 7 8 8 7 6 7 6 4 2 4 7 7 8 8 7 6 4 4
6 1 5 10 8 7 7 7 10 6 4 9 7 4 5 8 9 3 4 4 4 4 3 6 6 9 8 9 12 11 12 10 11 11 12 12 10 11 8 7 7 8 7 6 5 6 6 7 7 8 10 10 9 8 6 6 9 7 6 7 6 7 6 6 5 5 5 5 6 6 5 4 5 5 6 7 6 10 8 9 9 8 7 6 7 7 5 4 3 4 7 8 8 7 5 5 5
9 7 10 10 7 9 12 13 9 6 7 8 8 4 4 6 7 5 4 8 6 7 6 6 7 10 10 10 11 12 11 11 10 11 11 11 10 11 10 9 8 9 8 7 6 6 7 6 7 7 8 9 8 7 6 6 7 7 6 7 6 7 7 6 5 6 6 6 7 5 5 5 6 6 6 14 10 7 7 11 11 10 8 7 7 5 5 5 5 5 3 4 4 3 5 6 6
7 10 12 9 9 11 11 12 12 8 7 3 9 4 3 5 3 5 4 5 9 7 7 9 9 12 13 12 12 11 11 12 10 9 10 10 9 9 9 10 10 8 8 8 7 8 8 7 6 7 8 8 7 6 6 6 7 7 7 7 7 7 7 7 6 6 6 6 7 7 6 7 5 6 4 6 6 6 6 6 7 6 6 5 7 4 5 5 5 5 4 5 4 5 5 6 6
4 12 11 12 11 12 10 12 11 6 8 4 1 9 5 3 3 5 6 6 4 8 8 8 10 12 16 14 12 10 12 11 11 10 11 11 11 10 8 7 7 7 7 8 8 8 8 8 8 6 7 6 7 6 6 6 8 7 6 6 7 7 7 7 7 7 6 7 6 7 8 7 6 6 5 6 6 6 6 6 6 6 5 5 6 6 6 5 5 6 6 6 6 6 6 6 6
11 10 12 14 14 13 10 8 5 9 10 11 6 4 3 6 3 4 5 7 2 7 2 7 4 7 17 14 13 11 11 12 11 12 11 10 10 8 9 8 9 9 8 8 9 8 9 9 8 7 8 7 8 6 6 6 6 6 6 6 6 6 6 7 7 6 6 6 6 6 6 6 6 7 6 6 7 6 5 6 7 7 6 7 7 7 6 6 6 6 6 6 6 7 7 7 7
12 10 9 13 15 17 14 10 4 6 10 14 5 2 5 6 6 5 6 6 5 4 7 7 10 14 12 13 11 13 13 13 13 12 12 12 12 11 9 10 9 7 7 8 9 9 10 11 9 8 7 7 6 7 6 6 5 6 6 7 6 6 6 6 7 7 7 8 7 6 5 5 6 6 5 6 7 6 6 6 6 7 7 7 7 8 7 7 7 7 6 7 7 6 6 6 7
14 13 10 10 11 12 12 5 5 6 7 9 6 7 6 5 5 4 8 7 4 7 7 7 5 8 10 11 10 10 10 10 10 9 8 7 8 9 7 6 8 8 9 9 8 9 10 11 11 10 8 8 8 7 6 5 5 5 5 5 6 5 6 6 6 6 7 6 7 7 5 6 6 6 6 6 6 7 7 7 7 7 7 7 7 7 8 8 7 7 6 5 5 5 6 6 4
14 13 10 10 10 10 12 11 15 11 6 3 6 7 7 5 3 7 5 7 5 8 6 7 6 4 6 10 9 9 9 11 10 10 11 8 7 10 9 7 7 9 9 9 8 8 8 10 12 12 10 9 8 8 6 6 6 6 6 5 6 5 5 5 5 6 6 6 6 7 7 6 6 6 6 6 6 5 6 6 7 7 7 5 5 6 6 7 7 7 6 6 6 6 5 4 4
8 13 13 13 13 12 8 13 14 11 8 4 10 7 8 6 3 5 7 2 4 6 8 7 8 6 5 5 8 8 9 10 11 9 8 7 7 9 9 7 7 7 9 9 8 7 7 10 9 11 11 8 7 8 7 7 7 6 6 6 5 6 6 6 6 5 5 6 7 7 8 7 5 5 6 6 6 6 5 4 6 6 6 7 6 6 6 7 7 7 7 7 6 6 6 4 4
11 11 13 15 11 11 12 11 10 5 6 11 10 10 8 9 7 8 3 6 5 6 8 8 7 6 6 6 7 6 7 8 9 9 11 11 9 9 10 10 9 7 9 9 8 7 7 10 10 10 11 10 9 8 7 8 7 7 7 7 7 7 6 6 6 6 5 6 5 6 7 7 7 6 5 5 6 7 7 7 5 4 5 6 7 6 7 7 7 6 6 6 6 6 7 6 6
9 13 13 11 12 13 15 16 10 8 7 5 8 10 13 10 12 7 9 4 10 11 8 8 7 6 6 7 6 6 7 7 9 9 10 10 8 8 10 10 10 9 6 9 9 10 10 10 11 11 11 10 11 10 8 7 6 6 6 7 7 7 7 7 7 7 6 5 5 6 7 8 8 8 7 6 6 6 7 7 6 6 6 6 6 5 7 7 6 6 6 5 5 5 6 6 5
7 10 9 8 10 14 17 13 13 11 8 6 6 10 12 12 10 9 9 10 7 8 12 8 7 8 6 6 7 6 6 7 9 9 9 9 9 9 10 10 10 9 7 7 9 11 9 7 8 8 10 11 12 9 8 8 8 7 7 6 6 6 6 6 6 6 6 6 6 6 7 8 8 8 7 6 6 6 6 7 7 8 7 6 6 7 7 6 6 5 6 6 6 6 6 6 6
10 6 6 8 8 14 12 11 12 15 8 11 8 13 9 9 12 12 9 9 11 10 6 7 8 7 6 6 6 8 8 7 9 9 9 9 9 8 10 9 10 10 7 7 10 10 10 8 8 8 10 10 11 10 10 9 8 7 7 6 7 7 6 7 6 6 6 6 7 7 8 7 8 7 7 6 6 6 6 6 7 7 7 8 8 7 7 5 6 5 5 6 6 6 6 6 7
6 8 11 8 12 11 9 13 14 16 8 12 10 13 12 7 7 15 13 11 12 13 9 7 6 6 7 7 7 6 9 8 7 9 10 9 9 8 10 10 11 10 10 9 9 9 10 9 10 8 11 11 12 12 9 9 9 8 7 6 6 7 7 7 7 6 7 7 7 6 7 7 7 7 7 6 6 7 7 7 7 6 6 6 7 6 5 6 5 5 6 6 7 6 6 7 7
6 10 8 13 11 10 5 13 12 17 9 13 18 10 3 9 10 6 14 15 16 16 15 12 11 10 9 7 7 6 6 9 8 8 10 9 8 8 9 9 11 11 9 9 10 10 10 10 11 9 13 13 12 12 10 8 8 8 8 8 7 6 8 7 7 8 8 8 7 6 7 7 6 7 8 7 7 7 7 7 6 6 6 6 5 6 6 7 6 7 8 8 7 7 7 8 7
9 8 11 8 14 10 12 7 12 13 17 12 16 15 8 3 6 15 9 14 18 15 15 14 12 9 9 6 6 7 8 6 10 10 10 10 9 9 8 9 9 11 9 9 10 11 11 10 10 10 9 11 10 11 11 10 9 8 7 7 7 7 6 8 8 8 9 8 9 7 6 8 8 8 8 8 7 7 6 6 5 6 6 6 7 7 8 7 8 8 7 6 6 6 7 8 9
12 11 10 11 10 13 12 12 9 13 18 18 13 16 14 11 11 6 11 11 12 15 13 12 13 12 11 9 8 8 7 8 9 10 11 9 9 9 8 8 8 9 9 10 10 9 8 8 8 9 8 10 9 10 10 9 8 7 6 6 7 8 7 6 7 8 7 8 9 9 8 8 9 10 10 9 8 7 6 6 5 5 7 7 7 7 7 7 7 7 8 7 7 9 9 8 7
12 12 12 11 11 11 13 9 7 15 14 17 17 13 13 13 12 13 6 4 9 8 10 12 12 12 10 9 8 8 7 8 7 8 11 10 8 10 8 8 8 8 8 9 9 10 10 8 8 9 8 9 8 8 9 8 8 8 8 7 7 8 8 8 8 7 7 7 7 9 9 9 9 10 10 10 9 8 6 6 6 5 6 7 8 8 8 7 8 7 8 9 8 8 8 7 6
11 13 12 13 11 11 8 8 5 8 8 13 15 15 13 14 14 13 12 9 8 9 10 9 10 9 9 8 9 9 8 8 6 8 9 10 12 11 10 8 7 7 7 9 9 9 11 10 10 11 10 9 9 9 10 10 10 8 7 9 10 9 9 8 8 7 7 6 6 7 8 8 8 10 10 9 9 9 8 8 8 7 7 6 8 10 9 9 9 9 8 7 9 9 7 7 7
14 10 9 10 12 11 9 8 7 8 9 8 13 13 16 14 13 13 14 13 14 9 8 10 10 9 8 8 9 9 9 5 6 5 5 5 7 9 8 7 7 9 7 8 10 11 10 10 11 10 10 10 10 11 10 10 10 11 11 11 9 8 8 9 9 8 8 6 7 7 7 7 8 9 10 10 9 10 10 9 9 9 9 9 7 7 8 9 8 8 7 7 7 9 8 6 7
16 10 7 10 10 6 7 10 7 7 10 7 7 14 13 13 13 13 12 15 14 12 10 10 11 11 11 10 8 8 6 6 6 6 5 5 6 6 7 7 8 10 10 10 10 9 10 11 10 10 10 11 11 11 10 11 10 9 9 7 9 6 7 7 7 7 7 8 8 9 9 8 9 8 9 11 10 10 10 9 9 8 8 8 8 8 8 10 10 10 9 9 6 6 7 5 7
10 10 10 10 5 8 7 8 7 5 7 4 7 10 8 10 13 14 13 12 12 13 13 12 11 13 12 11 7 8 8 6 7 6 6 7 7 6 6 6 8 7 7 8 9 11 10 10 10 11 10 11 10 11 11 11 10 9 8 6 7 7 6 6 7 7 7 8 10 10 8 9 10 9 8 9 9 9 10 10 9 9 9 8 9 9 9 10 9 10 10 9 7 7 7 9 9
12 11 10 8 7 6 4 2 7 4 8 4 0 4 7 7 9 9 12 14 11 12 15 15 12 9 10 10 9 9 10 9 7 6 6 7 8 9 10 10 8 8 8 8 10 10 9 12 12 12 11 12 11 11 12 9 8 7 7 4 5 5 3 6 6 8 9 9 8 9 12 10 9 9 9 9 10 11 10 10 10 10 10 10 9 9 10 11 10 9 11 11 12 10 8 6 8
11 13 12 8 6 7 6 6 3 5 8 8 8 5 12 7 11 13 7 6 15 14 14 14 14 13 9 9 13 11 9 8 9 9 9 9 9 8 9 10 9 9 10 10 10 11 10 10 11 11 10 10 11 11 12 9 9 9 8 8 8 8 8 8 10 12 11 11 13 11 9 10 11 10 9 10 10 10 11 12 11 10 10 10 10 10 9 9 11 12 12 11 12 12 10 6 7
10 11 13 13 11 7 8 6 5 6 8 3 7 10 9 6 11 11 9 10 12 9 15 16 14 13 13 11 8 9 10 8 6 6 8 8 8 8 7 9 10 10 11 10 10 9 9 10 11 12 11 10 10 10 12 10 9 9 11 12 11 11 11 10 10 9 10 10 8 9 10 10 11 12 11 10 10 11 11 11 12 12 11 10 10 10 11 12 11 12 10 11 11 9 9 11 13
11 4 9 13 14 13 9 7 8 5 1 4 4 8 12 10 6 9 16 17 19 19 15 14 14 13 12 11 9 6 7 8 8 8 8 8 9 10 12 11 10 11 10 9 9 9 10 10 9 11 10 10 10 10 12 12 12 11 11 10 10 10 11 12 12 10 8 8 9 11 9 10 11 11 11 11 11 11 11 12 12 12 12 11 10 11 12 11 9 9 10 11 10 10 12 13 11
6 6 5 6 13 14 11 7 5 4 2 6 7 3 5 10 7 8 8 16 19 19 19 18 16 16 15 14 13 12 12 12 11 11 12 12 12 11 10 10 9 9 8 9 8 9 10 10 10 10 11 11 10 11 11 12 12 12 11 10 10 10 12 11 8 7 8 8 9 9 9 10 10 11 12 12 12 12 12 12 12 12 12 12 11 11 12 11 11 11 11 12 12 11 11 11 9
8 1 4 3 3 7 9 6 5 5 5 11 8 7 8 12 7 8 10 13 12 14 18 17 16 15 15 15 14 14 13 12 12 14 13 13 13 12 11 9 8 8 8 8 8 8 9 9 10 11 11 10 9 10 11 12 12 10 10 10 12 11 10 9 7 7 8 8 10 9 9 9 9 10 12 13 12 12 13 12 12 13 13 12 11 12 11 10 11 12 12 12 12 13 11 11 12
2 4 3 3 1 2 2 1 2 3 13 12 9 9 9 13 10 12 11 11 12 10 7 10 14 15 15 15 16 14 13 12 12 12 12 11 10 11 9 11 10 8 7 8 8 9 9 9 10 11 11 9 9 10 11 12 12 11 11 12 13 13 13 11 8 7 7 7 9 10 9 9 9 10 10 10 12 12 13 12 12 13 12 11 11 11 12 12 11 11 10 10 11 14 11 12 12
6 2 6 4 3 3 3 2 1 8 12 12 14 12 13 16 12 10 11 7 12 14 16 15 12 12 14 13 14 15 15 14 11 11 10 10 7 7 7 8 9 9 8 8 7 6 7 8 8 9 8 8 8 9 11 11 11 11 10 11 13 13 12 9 10 10 9 9 8 8 8 7 8 8 8 9 10 12 12 11 11 11 11 11 12 11 11 11 10 9 9 9 10 11 12 12 12
8 7 6 11 5 3 7 3 7 8 7 6 11 13 12 21 17 2 6 9 9 8 9 12 14 13 11 11 13 13 13 11 10 9 9 9 10 9 8 8 7 7 8 8 8 7 6 6 8 9 8 8 9 8 10 11 10 11 12 12 12 10 9 9 9 9 7 8 7 7 6 7 7 7 8 9 10 12 11 10 11 11 11 11 12 11 11 11 10 10 10 10 11 11 11 12 12
9 12 10 10 10 10 10 9 5 6 9 8 4 9 14 11 15 15 14 8 5 4 3 5 12 12 11 10 9 10 10 9 9 8 8 8 9 9 9 8 8 8 7 7 6 7 6 6 7 8 9 8 8 8 9 9 11 11 12 11 10 8 8 9 8 7 7 7 7 7 7 7 7 8 8 9 9 10 10 11 11 12 12 12 12 12 12 12 11 11 11 12 12 12 11 13 13
13 8 12 11 10 7 11 9 13 14 10 7 11 5 4 9 7 9 19 19 17 15 11 4 1 3 4 7 7 7 7 6 7 8 9 10 11 10 10 10 9 8 8 7 6 6 6 6 7 8 7 7 8 9 9 11 11 11 10 9 8 7 8 7 7 7 6 6 6 6 6 6 7 8 8 8 8 9 10 11 12 12 12 12 11 12 11 11 11 11 11 12 11 10 11 12 12
6 7 5 9 13 4 12 5 6 7 7 5 5 7 1 13 2 3 3 7 15 20 19 8 5 4 2 5 7 7 7 7 6 6 7 9 9 8 7 7 7 7 7 6 6 6 6 7 8 9 10 9 9 9 9 10 10 9 8 8 8 8 7 6 6 6 6 6 6 6 7 7 7 6 6 6 6 8 9 10 11 12 11 11 11 11 11 10 10 11 11 10 12 9 11 13 12
3 2 10 8 4 12 6 7 4 1 6 10 4 5 12 11 15 13 8 4 7 12 13 13 11 8 5 6 7 7 7 6 6 8 9 10 8 7 8 8 7 8 7 8 8 8 8 8 7 7 8 8 8 9 9 9 8 7 8 8 7 6 7 7 7 5 6 5 6 6 7 7 5 5 6 4 5 5 6 8 9 10 10 10 10 10 10 10 11 11 11 11 12 10 11 12 11
2 8 9 7 5 5 4 8 5 9 9 6 10 15 11 11 11 10 18 16 10 6 5 9 10 9 9 7 7 7 7 8 10 11 12 12 10 10 9 8 8 9 9 9 9 7 8 8 8 9 8 8 7 8 8 8 8 7 6 7 6 7 6 5 5 5 4 4 5 5 4 6 5 5 5 5 5 6 5 5 6 7 7 8 9 9 10 11 10 10 11 11 11 10 11 10 11
14 8 3 10 8 11 3 2 11 8 11 7 11 10 14 12 12 1 11 19 18 20 13 6 8 11 12 10 8 7 8 9 10 11 11 10 9 8 7 8 7 8 8 8 8 8 6 6 8 9 9 9 8 6 6 6 7 5 5 6 6 5 5 4 4 5 5 5 6 6 5 5 4 4 5 5 5 5 6 6 6 6 6 7 8 9 9 9 10 10 10 10 10 10 11 11 11
5 2 3 3 2 6 9 9 3 6 11 7 12 11 15 8 7 8 7 10 15 17 16 17 15 14 14 12 10 9 10 11 11 11 10 9 9 8 8 8 8 8 7 7 8 7 8 8 8 6 5 5 5 6 6 7 6 6 5 5 5 5 5 5 5 5 6 5 5 5 5 5 6 5 5 5 5 5 5 6 6 7 7 7 7 7 8 9 9 10 10 9 9 10 11 12 11
8 1 3 3 3 1 3 4 10 7 5 10 8 13 8 10 7 10 10 14 10 10 14 13 12 11 13 14 13 12 13 13 11 11 10 10 9 8 8 7 8 7 7 7 7 8 8 7 7 6 7 5 5 5 5 5 6 6 6 6 5 5 5 4 5 4 5 5 4 4 4 5 4 5 4 4 5 5 6 6 6 6 7 7 7 8 7 8 9 10 10 10 10 10 12 12 11
10 11 10 12 11 9 8 7 0 7 7 8 6 14 6 3 5 11 14 13 10 10 9 12 13 13 14 13 13 14 14 11 11 12 10 9 6 4 3 2 4 5 5 5 5 5 5 6 6 6 6 6 6 5 5 5 5 6 7 7 6 5 5 4 4 4 4 5 4 4 4 4 4 5 4 5 5 5 5 5 5 6 6 6 7 7 7 7 9 10 10 8 9 10 12 12 10
Wind_Direction
308 306 308 300 287 261 277 230 269 185 225 245 254 230 81 32 94 150 132 90 203 62 88 62 66 223 24 19 350 68 26 58 9 96 130 149 182 172 190 115 121 128 130 134 137 139 138 143 142 141 144 144 143 143 145 138 137 137 136 136 132 129 127 122 120 120 121 119 114 114 112 110 116 113 111 109 106 98 94 96 104 103 95 88 83 84 81 76 75 83 89 92 92 88 89 101 98
305 308 301 290 273 329 243 168 246 275 232 257 249 115 149 110 199 193 145 178 33 88 87 77 97 335 35 324 349 106 50 48 71 84 65 139 199 170 117 124 130 135 137 134 143 141 141 143 146 139 143 146 145 145 143 140 142 138 139 137 134 131 126 126 127 131 129 127 128 126 129 106 104 109 118 122 111 109 105 108 109 107 105 99 93 87 84 84 87 90 95 98 95 98 102 102 105
303 304 302 292 277 192 293 288 250 245 241 242 208 95 131 133 147 50 61 76 86 77 61 66 44 92 191 278 270 54 112 99 88 94 104 152 165 156 153 130 133 140 132 135 149 142 140 144 151 147 143 145 146 144 144 142 145 144 143 142 139 135 131 129 133 134 128 123 120 107 107 115 127 124 108 100 99 93 102 112 99 99 101 101 92 88 86 90 94 98 101 102 104 104 102 100 105
287 270 277 299 299 207 256 243 242 265 278 266 98 131 176 137 103 90 93 84 93 123 132 134 187 32 305 232 22 94 98 82 110 125 130 170 155 165 135 130 134 130 122 139 149 144 140 149 156 150 145 147 147 146 144 148 147 146 148 144 144 142 138 135 137 134 133 128 131 129 128 135 141 117 117 114 116 111 107 97 105 98 95 99 102 96 91 90 99 100 104 108 104 106 111 107 101
279 283 262 271 296 254 221 234 256 219 247 317 102 173 134 121 104 100 93 96 90 128 214 113 103 127 69 5 292 74 103 91 96 121 142 159 124 164 130 128 139 131 137 146 146 144 140 152 155 149 146 149 150 149 149 150 147 148 147 147 145 142 142 141 138 138 136 147 142 141 144 137 119 121 114 121 123 121 120 117 110 108 105 109 104 101 99 99 95 98 99 108 116 115 108 110 106
293 295 282 206 231 355 291 288 256 263 273 284 183 88 133 99 107 107 118 106 83 46 337 140 285 155 180 91 20 80 208 105 140 110 128 119 143 160 130 134 142 140 145 144 142 141 147 154 152 151 152 150 149 149 150 153 152 153 154 153 148 144 146 145 143 142 142 152 151 143 136 137 139 133 133 131 117 111 108 112 122 117 100 106 107 106 109 100 101 97 100 101 108 114 115 114 111
302 333 249 213 273 237 254 239 252 252 250 223 108 130 83 88 106 116 119 106 132 112 55 290 100 316 197 102 77 52 17 119 121 133 117 145 153 142 135 146 138 147 150 141 137 138 151 155 151 152 154 152 150 151 154 155 155 157 161 159 153 154 152 145 142 145 149 153 150 144 151 151 142 132 134 130 127 127 131 122 114 113 114 101 113 121 115 114 105 99 99 94 95 105 110 116 114
82 199 327 288 269 167 229 247 258 255 316 329 80 87 85 93 113 134 140 172 153 179 182 31 341 330 62 187 105 68 56 53 96 106 126 140 147 127 140 142 146 145 151 140 130 140 152 155 152 153 153 154 151 153 155 159 160 161 164 166 162 162 155 146 149 151 147 155 154 156 163 151 142 140 145 137 131 134 127 132 130 133 128 134 124 124 122 122 116 113 110 105 94 94 90 98 106
204 212 236 309 262 259 246 231 247 249 201 126 71 66 72 93 128 151 143 93 138 151 164 149 224 218 138 131 92 111 82 102 105 119 134 145 128 139 151 142 152 146 152 129 126 135 149 156 154 153 154 153 153 153 156 158 160 163 166 168 170 155 154 151 153 156 156 160 163 153 154 148 143 144 150 145 136 150 141 130 123 129 140 139 135 138 130 129 131 127 114 111 112 101 99 96 107
280 173 237 238 295 254 235 239 246 246 226 156 133 154 137 119 155 230 148 150 136 138 142 139 152 234 112 115 119 129 121 123 128 122 133 141 129 154 151 142 143 147 137 106 127 137 146 155 155 153 153 153 153 155 156 156 158 161 166 166 167 154 161 159 156 161 165 168 165 153 158 156 152 149 151 153 142 163 147 153 147 154 153 154 151 152 148 147 137 136 132 136 126 130 114 97 122
288 226 241 270 248 258 247 250 228 247 237 104 104 117 128 147 143 217 222 141 118 146 100 120 165 250 279 77 73 84 127 132 133 128 141 138 135 154 142 134 140 145 121 120 130 136 142 153 157 153 152 151 153 154 157 157 160 161 164 165 165 166 163 165 164 166 167 172 174 158 161 167 162 162 166 158 137 142 156 154 151 155 144 152 162 170 161 161 159 153 148 152 151 144 134 127 133
266 256 162 232 228 240 259 261 265 252 231 131 171 122 132 153 167 176 207 148 134 138 151 168 113 168 231 132 117 139 136 136 126 132 135 136 146 160 150 139 138 136 127 130 136 131 145 151 155 157 151 153 155 156 157 156 162 163 163 170 168 169 168 168 169 169 171 170 173 168 170 173 171 168 169 154 150 155 194 149 174 163 167 175 178 174 166 183 183 186 164 167 161 169 169 172 172
256 289 274 248 230 208 254 281 279 269 269 165 133 133 146 149 183 189 166 208 150 160 156 185 115 337 202 103 139 138 139 128 131 132 136 155 152 151 142 134 147 143 129 131 134 138 148 149 155 158 157 152 154 154 155 156 161 163 166 171 175 173 177 171 170 175 174 172 167 180 175 149 159 169 162 155 160 168 169 158 175 173 193 175 180 165 167 189 200 196 196 172 182 181 194 194 194
262 258 273 263 257 239 218 255 269 260 185 41 105 140 160 164 197 186 141 202 150 183 52 119 338 181 98 106 144 143 123 136 130 130 147 155 141 137 146 135 153 137 124 140 139 146 153 154 158 161 155 155 154 151 156 158 161 166 171 173 179 181 168 168 171 176 178 174 171 173 171 153 143 141 151 158 164 170 165 170 168 182 202 177 179 189 195 191 192 205 221 199 196 203 212 209 210
256 303 279 267 270 264 211 230 256 250 262 127 165 152 150 161 197 110 175 190 77 104 112 82 39 120 42 156 165 141 143 137 136 142 151 133 126 139 134 129 141 140 138 160 148 151 161 161 161 161 162 166 159 160 162 171 168 169 173 175 181 182 167 168 171 181 180 181 176 174 166 153 143 146 152 161 168 158 162 171 174 181 187 196 200 194 203 199 198 209 211 211 211 215 218 222 217
266 284 282 261 248 254 228 209 250 288 102 122 155 144 137 85 350 152 66 20 123 113 151 132 84 9 79 78 109 130 132 138 141 143 134 132 139 132 123 137 151 143 149 157 165 152 165 171 161 161 165 172 166 173 172 169 176 167 172 170 179 179 169 173 171 177 183 181 176 171 165 153 149 155 159 158 162 163 164 167 176 181 192 192 208 206 206 209 209 206 212 213 216 220 221 224 218
281 23 259 251 247 233 246 237 202 237 112 127 174 147 158 163 208 62 280 48 151 154 151 126 135 133 83 104 118 124 132 133 139 138 129 138 134 140 139 153 162 146 154 171 170 157 167 172 166 159 169 176 172 180 171 169 180 167 174 167 170 175 173 166 168 178 180 175 173 174 171 170 172 171 175 172 165 167 178 171 174 179 198 199 200 207 219 226 222 215 211 213 220 217 216 194 144
318 231 232 241 235 231 234 251 219 235 197 151 175 173 166 158 164 130 199 128 287 128 174 117 79 74 111 118 121 125 130 140 145 141 146 145 150 155 162 174 166 166 172 180 177 174 165 172 181 159 176 179 177 178 175 171 170 179 169 168 168 169 166 156 161 173 188 171 179 177 179 190 190 187 179 192 174 178 183 173 181 180 186 172 158 165 166 172 238 233 228 226 226 223 169 148 186
186 213 258 238 225 244 256 246 246 227 186 164 156 197 213 165 165 155 166 193 198 144 196 146 132 109 111 124 125 132 143 148 153 155 157 162 163 168 173 172 176 168 175 178 180 184 182 173 184 179 173 181 179 178 177 171 161 177 174 168 169 168 168 168 175 186 191 186 185 179 190 199 213 205 186 185 176 182 179 179 180 186 187 186 188 180 178 187 202 241 240 225 222 215 164 189 194
189 188 230 244 248 258 248 254 261 261 255 157 150 150 236 139 158 137 197 177 189 202 179 178 173 146 145 141 144 146 155 155 163 164 167 168 174 169 173 177 183 179 174 175 174 186 188 182 183 186 176 177 176 178 173 160 159 174 176 173 173 174 171 177 194 193 195 198 181 189 191 211 207 223 200 177 187 176 173 183 184 187 195 197 198 198 196 194 199 213 244 226 192 194 181 201 218
169 204 216 229 235 253 257 263 261 283 268 237 146 111 215 138 165 156 179 213 188 201 200 178 192 163 156 157 153 155 160 161 172 173 173 173 182 176 179 180 181 182 172 164 174 187 189 187 187 184 180 174 179 172 169 162 159 173 188 179 172 172 174 175 189 202 201 203 178 191 199 209 207 214 204 166 173 168 165 176 185 189 192 200 196 199 198 205 207 209 215 209 203 200 213 224 225
216 213 215 227 245 257 259 261 258 287 292 289 189 141 211 141 154 181 189 211 202 194 199 184 183 167 154 158 157 160 163 166 174 176 183 178 184 181 174 169 173 180 164 172 180 183 191 192 190 185 175 175 179 170 173 172 163 177 186 176 176 173 174 177 184 194 198 201 197 188 199 201 206 200 201 163 175 181 178 169 181 186 188 199 184 202 206 208 203 208 204 207 211 208 218 227 227
231 220 215 221 234 253 269 286 341 347 325 295 252 164 203 159 188 196 217 215 114 43 349 167 142 140 151 150 150 163 165 171 176 183 181 182 187 187 177 173 174 180 179 181 174 184 189 196 194 184 180 177 180 171 171 174 175 176 180 176 173 190 173 177 184 187 196 196 197 194 198 203 194 193 199 171 184 184 191 186 178 184 196 198 186 193 200 206 211 205 207 210 205 202 213 225 231
224 228 222 222 221 231 237 257 146 251 273 270 252 281 207 164 210 174 219 232 101 87 70 60 96 112 131 144 160 169 170 174 182 184 186 185 183 187 183 178 174 172 175 184 175 182 184 191 194 187 186 176 175 182 177 172 176 179 182 174 182 191 185 183 185 184 191 196 188 192 196 213 200 192 193 189 180 183 197 193 193 178 193 201 191 183 193 197 205 213 200 200 203 207 211 218 224
226 229 222 238 231 230 242 233 229 209 246 299 309 279 245 223 198 174 208 217 175 115 101 90 83 120 140 147 165 171 174 175 178 182 185 188 183 182 194 183 168 168 176 186 176 181 184 183 186 190 191 176 176 183 188 173 179 188 184 172 183 195 193 190 193 185 192 185 175 179 188 210 216 193 196 201 186 190 193 190 188 199 201 197 187 190 184 191 197 199 208 207 200 207 212 231 242
224 233 227 236 244 229 232 229 227 187 209 253 274 262 285 272 237 259 230 200 200 130 127 132 126 138 156 157 170 173 178 177 177 178 184 185 180 180 191 192 176 175 180 179 180 185 178 180 184 186 190 188 178 178 188 180 182 191 193 186 183 196 201 194 199 210 195 178 177 181 192 200 204 202 198 200 195 201 195 196 194 196 195 200 190 198 193 184 191 193 197 203 202 206 211 220 223
198 229 238 232 233 253 234 231 235 230 181 179 258 249 245 259 241 236 238 244 197 147 150 154 153 167 183 168 168 178 176 179 181 175 172 181 184 185 186 189 192 182 171 179 181 185 178 175 184 183 187 186 186 182 185 188 185 193 193 189 192 196 194 195 203 215 208 185 184 180 185 195 209 209 200 195 196 206 213 206 199 188 191 194 204 206 197 194 192 191 198 199 196 198 206 212 224
235 226 235 243 237 240 260 249 242 253 215 185 215 245 242 239 228 231 226 212 248 225 170 169 170 181 183 186 178 176 179 177 173 171 180 179 189 185 184 188 191 190 176 180 177 176 180 177 180 181 184 182 186 188 180 187 192 197 193 191 197 196 183 193 205 212 221 208 194 180 182 188 202 218 209 203 192 192 202 213 206 201 204 198 200 205 203 196 190 197 201 203 198 193 199 203 213
232 223 234 235 239 242 239 248 229 208 243 185 205 245 239 222 228 214 232 239 203 228 230 185 185 186 193 186 182 175 182 173 168 181 187 187 183 185 189 186 184 191 188 175 173 174 185 177 178 183 183 177 183 187 181 186 194 202 200 197 198 192 185 186 200 207 213 212 212 195 189 187 189 204 217 210 201 192 191 195 201 207 211 207 210 216 204 194 190 197 209 202 198 181 188 205 204
242 228 228 242 235 242 234 235 242 212 210 219 156 243 231 222 220 223 208 227 259 228 220 208 195 191 197 195 178 178 180 173 176 185 183 181 181 184 189 183 183 187 184 176 170 177 180 178 174 179 182 176 182 186 181 186 196 203 202 202 196 186 186 190 201 204 208 215 214 210 194 188 186 190 203 215 209 205 200 195 197 203 201 205 217 223 207 187 187 198 208 199 205 193 196 199 199
227 210 224 229 225 236 218 225 224 235 173 208 188 242 239 222 204 212 220 198 225 247 236 218 205 193 193 200 189 177 184 185 183 178 185 182 179 181 185 181 180 181 179 180 182 176 175 176 173 179 180 178 177 186 185 185 190 202 201 200 195 186 189 201 203 204 209 220 222 213 195 189 189 187 194 203 210 207 209 211 208 201 195 198 208 206 185 192 197 213 203 204 203 205 207 205 202
216 197 217 221 228 234 218 209 216 225 187 198 207 244 237 230 214 196 208 195 213 233 233 220 227 211 201 195 201 188 180 185 186 179 185 185 179 179 179 181 178 179 181 182 177 173 178 176 176 179 175 181 180 186 187 183 187 195 200 207 203 191 193 194 197 200 206 219 230 216 197 191 190 191 193 199 208 208 212 213 211 204 200 193 197 195 182 195 203 219 221 198 199 213 207 222 211
215 218 212 215 216 230 239 215 207 218 216 194 208 242 141 232 239 243 198 194 202 214 219 218 212 218 212 200 197 201 186 179 186 189 184 184 186 178 176 178 176 180 179 175 176 177 180 176 173 179 174 182 180 183 183 187 189 196 197 204 210 197 195 197 199 200 201 208 227 219 197 190 194 196 199 204 209 211 214 216 211 205 203 204 199 196 198 199 203 214 218 206 190 204 209 219 218
208 208 230 217 218 209 229 213 209 205 208 215 205 228 225 311 199 219 245 196 202 208 219 220 215 211 215 210 204 197 198 184 183 194 195 182 183 180 173 177 173 176 179 175 175 179 182 176 175 181 173 180 180 181 183 184 191 198 201 202 207 216 205 199 203 199 198 199 209 220 195 188 193 198 200 208 215 216 214 211 210 207 203 205 205 197 202 197 205 206 214 213 204 207 222 222 225
195 199 216 227 233 219 220 214 186 211 200 219 209 219 222 234 272 267 223 234 201 204 210 220 223 215 212 212 211 210 200 197 193 187 194 189 174 177 175 173 174 172 176 177 171 175 177 177 171 179 174 178 177 177 177 179 183 195 202 204 204 214 223 217 205 203 200 195 199 204 198 190 189 192 198 202 212 216 219 217 210 207 202 204 202 203 205 203 202 202 204 215 212 214 217 219 218
201 199 214 219 223 220 227 216 204 202 206 210 216 225 214 216 226 251 267 250 253 211 200 210 221 220 217 213 210 214 212 207 201 191 183 182 176 173 176 173 175 174 170 176 173 168 177 177 171 175 182 176 177 169 169 176 181 190 194 201 212 211 213 216 217 215 204 203 197 196 199 195 189 191 193 198 206 210 215 216 218 217 211 198 201 208 211 207 211 209 212 206 214 222 215 213 215
207 213 211 218 226 240 236 230 224 189 213 213 214 222 221 215 212 227 244 246 255 223 209 210 209 213 217 216 213 213 214 214 202 200 186 177 178 175 175 169 167 168 169 172 176 176 175 179 172 180 184 179 176 176 175 179 186 187 195 202 208 205 207 208 214 216 214 212 206 205 203 198 191 191 192 194 202 204 211 214 214 221 222 212 205 211 208 211 209 209 213 204 213 222 229 216 222
232 223 224 222 216 227 222 229 199 179 196 218 215 222 223 225 215 210 215 234 239 233 211 215 216 218 221 222 217 212 215 210 204 177 142 139 130 155 158 161 162 166 187 176 179 184 179 177 183 181 176 186 186 185 181 184 187 191 190 199 197 199 199 201 209 210 212 210 209 214 210 206 198 192 193 194 199 202 207 213 214 214 217 225 223 211 208 210 208 209 204 222 212 216 229 198 208
233 231 222 230 224 227 227 223 226 189 198 224 197 218 227 226 228 226 224 212 226 228 223 218 215 218 222 222 221 219 212 209 187 172 156 147 143 150 156 165 175 177 181 183 185 178 182 186 187 182 181 185 192 187 182 191 191 193 193 195 192 199 205 202 203 205 203 207 209 210 212 212 210 204 188 193 197 201 206 208 215 214 216 218 224 223 213 209 207 207 203 210 216 223 228 211 203
234 224 235 230 207 204 205 221 222 170 176 183 225 237 233 228 224 228 232 234 216 223 228 223 214 218 221 223 219 220 222 208 193 187 178 166 179 187 172 179 189 189 179 180 184 186 186 190 191 185 185 185 190 194 193 194 192 190 189 180 186 188 191 193 196 202 206 206 214 210 212 210 210 210 196 191 196 199 201 207 208 215 219 215 217 222 221 220 206 207 206 209 201 222 211 224 207
233 233 233 235 224 220 241 174 210 203 203 181 73 288 255 229 240 227 219 230 240 216 224 234 231 221 213 213 221 216 217 213 204 198 194 180 186 196 196 196 189 188 191 192 190 189 192 192 191 186 186 186 190 194 194 183 175 182 180 178 168 189 188 185 192 210 207 209 213 210 214 208 208 208 206 197 196 200 201 205 207 211 213 216 216 220 221 221 214 208 205 206 206 212 221 213 212
228 233 237 243 234 230 211 253 272 216 234 185 161 248 247 211 227 233 238 225 225 223 225 223 225 231 229 213 210 212 215 209 204 208 203 197 196 198 195 194 189 191 194 200 198 193 188 189 188 187 187 188 191 192 188 181 181 179 171 177 185 188 198 193 201 205 199 204 210 210 209 206 208 210 207 205 198 199 203 204 207 209 212 212 215 219 221 216 214 211 208 205 211 211 219 223 230
226 216 217 241 260 261 246 235 212 232 217 194 176 222 258 171 217 219 222 241 251 235 222 224 218 220 221 225 211 205 206 215 218 212 210 207 208 213 210 194 197 195 201 196 197 195 191 188 187 186 188 190 191 187 182 183 185 185 186 189 191 191 196 211 214 207 200 209 205 205 208 203 205 206 209 207 205 201 204 205 207 210 212 214 212 214 220 218 215 214 207 208 213 207 209 226 228
239 219 203 209 232 250 252 239 236 259 209 272 228 205 252 254 221 209 211 221 230 239 239 227 223 220 219 218 214 207 205 210 212 215 214 210 208 208 214 211 199 199 198 193 190 187 191 193 186 187 189 190 189 185 180 183 188 189 190 191 192 196 203 214 212 210 204 196 201 205 201 203 202 203 206 209 210 206 205 207 208 209 213 215 210 215 220 219 216 216 207 210 209 208 210 220 227
226 222 258 224 209 226 238 246 261 256 301 229 237 190 249 245 222 226 210 219 224 227 228 230 227 224 224 219 214 214 210 211 210 215 219 218 216 214 211 210 207 199 193 193 189 186 190 194 191 188 190 190 190 185 181 186 189 191 192 190 194 206 208 219 215 201 199 200 204 201 199 200 199 202 204 208 210 210 208 211 208 210 213 214 211 220 222 217 215 211 206 206 207 210 212 219 220
215 329 18 321 267 224 226 245 245 264 241 238 219 192 241 259 203 213 219 239 232 219 221 227 225 222 221 219 217 217 216 215 217 218 218 223 223 223 219 215 212 208 207 204 195 186 188 188 190 188 192 189 187 185 182 185 190 188 192 196 201 207 212 221 210 199 196 194 206 203 201 199 198 199 204 207 208 210 212 211 211 212 214 214 214 221 224 222 221 218 212 207 207 210 212 213 219
194 150 160 259 43 39 13 262 251 234 241 233 219 220 223 265 218 214 211 213 226 233 232 218 221 221 217 212 212 215 218 216 216 219 220 223 222 219 216 220 223 223 217 211 203 193 189 189 186 185 189 183 181 182 184 187 189 190 195 198 204 209 212 213 210 210 205 198 202 205 201 202 198 200 200 205 207 209 214 212 213 216 216 215 215 218 221 221 223 223 220 214 209 210 211 214 218
201 125 185 216 208 60 28 300 58 215 235 222 213 215 222 244 243 207 223 217 208 213 224 228 226 216 213 208 206 210 214 217 212 209 216 224 230 229 218 222 222 223 217 215 213 194 184 182 174 178 185 185 185 184 187 191 190 195 199 201 208 213 211 207 208 211 207 210 205 203 202 197 201 200 196 201 208 210 212 213 214 217 218 217 218 219 222 223 224 224 224 222 220 214 215 214 217
227 165 197 192 201 153 222 193 226 219 234 204 212 209 236 238 248 152 219 209 226 221 214 217 222 225 215 202 202 206 209 207 199 199 207 214 220 226 226 225 219 219 215 210 205 191 175 167 168 174 192 191 193 189 187 191 192 197 201 207 214 213 210 208 209 211 205 207 211 215 206 207 203 203 203 203 209 209 208 211 211 214 218 218 221 217 221 220 220 220 221 224 224 223 218 216 218
231 206 176 184 198 201 224 211 237 254 232 222 221 193 240 262 266 224 248 239 236 205 238 237 212 214 211 203 198 188 186 184 190 191 198 207 213 218 220 219 214 215 214 205 188 177 177 180 184 186 199 195 194 191 192 193 199 202 204 207 211 207 210 208 211 209 208 205 200 208 210 208 207 208 208 212 206 204 207 211 211 215 216 217 216 218 218 218 219 220 220 221 223 225 225 225 225
213 218 195 196 190 196 211 205 212 221 234 215 194 190 209 194 220 141 216 229 242 263 262 288 301 172 189 191 176 168 168 178 180 185 195 205 211 207 209 211 210 208 207 205 196 184 171 184 187 192 198 203 195 196 195 199 204 206 206 204 203 202 207 206 209 205 205 207 208 208 210 210 209 216 213 214 207 203 205 208 213 216 215 216 215 217 219 220 220 222 223 223 225 223 225 226 229
247 233 226 206 211 177 231 190 210 226 240 246 182 216 114 239 281 232 201 191 207 224 234 217 237 254 187 165 173 171 173 185 187 198 218 224 221 214 206 206 206 203 205 204 199 187 181 184 186 191 195 201 200 198 199 200 204 201 199 195 198 197 197 200 206 205 211 203 207 206 217 221 222 220 224 216 216 206 208 209 212 217 215 215 215 216 216 218 219 222 225 225 228 222 227 226 228
160 227 225 217 208 218 237 261 193 228 222 231 179 232 241 277 272 252 274 247 212 214 218 205 202 200 183 191 188 185 183 186 199 213 219 223 223 215 202 198 200 198 196 194 192 185 183 184 185 195 205 207 204 200 198 196 193 189 195 194 191 191 192 197 199 202 204 206 203 210 214 223 228 228 233 227 231 224 216 214 215 218 217 216 216 216 217 218 219 222 225 225 229 225 227 229 225
122 220 216 242 251 41 231 228 197 228 230 227 193 222 234 215 264 180 232 244 250 257 204 210 207 191 195 196 190 186 190 199 208 214 216 216 209 208 206 202 196 194 192 192 191 186 183 182 187 197 206 208 207 197 193 185 182 185 187 188 188 186 190 196 195 205 211 215 230 227 224 228 230 231 228 236 235 238 240 226 224 224 218 214 216 215 217 219 218 224 226 228 229 225 229 230 227
205 185 185 204 209 234 172 262 227 212 225 239 228 229 240 222 235 142 193 218 225 233 230 212 214 198 195 195 198 196 202 211 216 218 219 220 216 209 201 201 200 194 189 187 185 181 183 192 198 196 203 205 200 189 174 172 168 172 173 178 178 180 179 184 197 204 207 213 227 230 229 230 239 239 236 240 240 240 236 240 235 234 222 219 215 217 214 219 218 227 227 231 230 227 231 233 230
11 343 224 90 16 247 201 204 258 223 241 221 240 211 245 224 240 227 222 225 216 223 221 220 214 201 195 195 198 198 210 219 221 224 223 221 220 208 194 189 188 186 183 183 182 184 192 198 196 199 195 187 176 175 170 166 162 154 155 153 167 174 187 194 203 203 215 219 227 227 232 244 241 241 241 239 240 238 235 235 234 233 232 226 222 219 216 220 221 227 227 229 229 224 231 233 233
210 271 227 185 195 262 350 246 214 211 224 231 244 240 221 233 220 243 231 237 227 205 218 215 212 199 196 198 195 199 212 219 219 224 228 226 226 222 210 196 188 186 183 181 185 191 195 187 184 180 180 178 157 155 142 149 143 146 150 167 181 185 196 198 201 205 212 225 230 227 230 231 241 247 241 245 243 244 244 240 239 235 232 232 228 230 221 222 225 230 229 230 229 224 231 235 234
233 211 207 202 194 211 216 234 282 243 221 224 224 247 253 236 179 224 231 239 234 212 210 203 207 202 197 192 187 197 215 217 219 222 225 230 234 231 202 170 151 153 166 172 182 174 178 184 183 174 171 180 168 172 165 162 159 161 166 180 187 186 189 187 195 210 213 224 227 226 226 241 239 248 240 245 246 248 245 243 242 241 238 235 233 230 225 220 226 230 233 229 230 228 232 236 233